2 Oct
2006
2 Oct
'06
11:05 p.m.
ISS 1 25544U 98067A 06275.48181713 .00021761 00000-0 13733-3 0 7842 2 25544 051.6376 354.7407 0012860 050.9711 139.6455 15.76471503450089
6654
Age (days ago)
6654
Last active (days ago)
0 comments
1 participants
participants (1)
-
Dave Larsen PhD